Dewpoint
55 54 54 54 53 52 52 52 53 53 52 53 56 56 55 53 51 44 33 36 46 50 38 26 29 31 28 29 27 25 24 25 25 22 23 24 26 29 27 25 28 26 26 27 29
53 53 52 52 51 51 51 52 52 52 53 53 55 55 53 52 45 37 41 46 46 38 30 33 32 32 30 25 26 24 25 25 24 23 23 28 29 29 28 29 28 27 30 30 30
53 52 51 51 51 51 51 51 51 52 53 53 55 54 51 49 32 24 50 45 46 36 30 27 29 31 30 27 25 24 23 24 23 25 31 30 30 29 28 27 28 28 28 29 29
53 53 52 52 52 51 51 51 52 51 53 53 55 53 50 44 -8 38 46 47 46 35 32 30 31 29 27 26 28 24 25 25 30 31 31 30 30 28 27 27 30 29 29 29 29
51 51 52 52 52 51 51 52 50 50 52 53 54 50 45 33 22 46 44 45 41 36 34 32 32 30 27 29 31 30 30 32 32 31 31 31 29 28 27 29 29 29 28 28 29
51 50 51 52 52 51 51 51 48 49 50 52 52 48 44 19 36 43 43 40 39 39 33 32 34 33 33 32 31 32 31 31 31 30 30 28 27 27 27 28 26 26 26 28 30
51 50 51 52 51 51 51 50 47 49 48 49 50 44 42 24 42 43 43 41 41 38 37 34 34 33 33 31 32 31 29 28 27 27 26 27 18 23 27 27 25 25 26 27 31
50 51 51 50 50 51 51 51 48 47 47 52 48 43 29 43 44 43 43 41 43 41 39 40 39 34 32 32 30 29 28 17 23 25 27 24 17 23 28 26 25 26 27 28 40
51 51 50 49 50 51 51 51 49 48 51 49 45 42 27 40 35 39 42 37 42 41 40 40 37 35 31 29 26 28 14 23 21 25 25 24 23 25 27 27 26 26 27 30 41
50 49 49 50 49 50 51 51 51 49 47 46 44 35 32 21 34 42 43 41 40 39 39 38 34 33 31 28 7 11 20 25 22 22 26 27 26 27 28 27 31 36 36 40 39
49 47 49 49 49 50 49 45 40 39 42 33 34 30 34 38 39 40 42 39 38 37 32 35 33 28 30 30 25 24 23 24 27 28 29 27 26 26 29 39 38 39 40 40 38
47 48 49 49 49 50 47 42 37 43 34 39 39 39 40 40 32 33 41 34 35 27 34 32 31 33 31 31 29 29 28 27 29 29 28 26 26 31 37 39 38 38 38 37 36
47 48 49 49 47 49 44 43 47 45 37 34 40 38 37 38 32 30 38 37 35 32 33 28 26 33 31 30 29 29 28 28 28 29 28 27 24 32 34 38 37 37 37 37 36
47 48 48 47 46 43 41 44 46 46 20 17 36 39 40 38 27 35 38 36 33 31 33 32 33 31 32 30 30 28 30 30 29 26 22 28 20 27 32 33 36 36 36 36 36
47 49 47 49 42 43 42 47 47 36 -16 22 37 41 40 31 34 36 34 34 31 31 30 25 28 30 29 29 31 26 29 28 28 27 28 26 24 27 30 29 33 34 35 35 36
48 48 47 47 47 45 48 48 40 12 -20 24 36 37 36 37 35 33 32 33 32 30 30 26 31 29 28 31 29 30 30 29 30 28 22 24 23 23 26 29 32 34 35 35 36
48 48 46 45 39 46 48 45 21 3 4 21 30 37 34 32 33 31 30 30 27 25 26 29 29 30 30 29 32 29 28 20 21 21 19 24 24 22 30 32 33 33 34 35 35
48 47 46 45 46 47 46 37 12 5 7 20 33 36 30 31 29 33 29 28 30 26 27 24 17 28 30 28 27 29 25 20 16 17 17 24 21 23 32 33 33 34 35 35 34
47 45 44 44 46 47 40 26 16 19 21 12 24 27 29 30 27 30 27 26 29 29 18 23 21 31 33 32 29 29 27 28 26 26 24 21 23 30 32 32 34 34 35 33 32
42 41 40 43 47 43 34 25 26 25 26 26 4 12 16 25 26 28 29 30 26 29 28 25 21 28 32 32 31 30 30 27 30 20 17 18 20 21 30 30 33 34 34 33 33
40 35 38 46 46 36 28 26 25 29 28 23 23 25 25 19 27 27 26 27 30 30 29 28 25 26 32 31 29 29 28 28 28 27 18 13 16 27 30 31 32 33 34 33 31
38 29 41 46 32 31 28 27 27 27 26 27 29 30 25 27 26 24 25 25 31 30 29 30 28 25 26 32 31 30 29 29 25 24 26 23 19 32 32 32 33 33 34 32 30
34 32 41 43 26 27 27 26 28 29 27 28 27 29 31 27 23 26 25 30 33 30 30 33 30 24 25 31 33 31 31 31 31 30 24 23 18 33 32 33 33 33 32 29 26
34 28 33 36 35 29 25 25 26 29 29 30 31 30 29 27 30 27 27 31 32 32 38 35 30 25 21 25 29 29 30 31 31 26 25 23 22 30 32 33 33 33 29 26 25
34 30 31 27 30 30 29 28 26 26 30 31 28 31 28 26 26 26 27 28 30 32 36 33 25 28 28 27 27 26 25 28 28 29 25 22 25 27 32 33 34 29 26 25 24
31 30 32 29 31 29 27 25 24 27 28 32 31 31 32 29 27 24 28 29 27 33 35 34 26 28 26 29 30 28 28 28 28 29 29 29 30 33 33 35 28 27 26 24 24
34 37 30 29 29 29 29 26 26 27 28 29 32 31 30 31 33 33 34 32 31 31 31 31 30 27 23 25 28 25 26 27 27 28 28 26 29 31 30 29 28 27 25 24 24
Wind_Speed
2 2 2 2 3 5 6 6 8 10 10 12 12 12 14 19 20 4 5 2 3 11 6 2 4 6 3 3 3 2 2 5 4 5 2 5 6 6 6 5 6 2 6 10 17
4 4 3 2 2 4 6 6 7 9 10 11 11 10 14 18 9 8 5 5 4 6 2 3 3 5 3 3 3 1 4 5 1 0 2 5 5 8 8 17 3 4 10 13 16
5 4 2 1 1 3 5 5 8 8 10 10 9 9 14 12 6 1 5 5 6 4 4 2 3 3 3 2 1 1 4 3 1 1 6 4 6 2 8 7 9 14 16 15 9
6 5 4 3 2 3 3 5 6 8 9 9 8 8 13 3 7 1 2 5 6 3 3 4 4 3 2 2 1 3 4 2 4 4 5 7 5 8 13 12 7 12 11 9 16
6 5 5 5 3 4 3 3 5 9 8 8 4 7 4 3 9 2 6 5 4 3 4 4 3 3 3 2 1 5 3 3 6 9 9 6 11 9 12 12 6 7 13 17 17
7 5 5 5 5 4 3 3 3 7 9 6 1 3 4 10 2 5 7 3 6 4 2 3 3 3 3 1 3 0 4 9 6 12 6 5 4 4 2 4 9 12 16 16 19
7 5 5 5 5 5 4 5 3 5 7 6 2 3 1 17 4 5 5 1 2 2 4 3 4 3 3 1 1 3 8 10 4 1 1 4 1 6 2 13 23 20 17 21 15
7 6 5 5 4 5 4 5 5 5 6 3 3 2 9 3 3 9 3 5 5 3 3 3 4 6 1 2 4 2 2 3 3 7 3 4 4 6 8 24 28 28 27 21 14
7 7 5 5 3 4 2 5 5 5 5 5 2 1 10 7 5 2 6 4 5 4 4 5 5 3 2 3 2 2 5 1 6 4 5 11 6 12 26 20 21 24 24 17 13
9 6 5 4 3 3 2 1 9 7 3 2 1 3 6 2 1 4 3 7 3 11 7 3 4 4 3 7 8 4 3 3 4 4 11 16 13 13 18 15 13 16 16 13 17
9 5 5 3 3 3 8 5 3 2 6 10 6 4 4 7 4 3 5 7 7 3 7 4 8 17 16 12 3 3 3 8 8 11 8 6 15 16 10 15 17 18 15 15 16
11 7 5 4 3 6 5 3 3 1 10 20 19 13 6 3 2 4 9 6 5 7 9 5 15 16 5 9 10 8 9 15 9 6 7 10 20 5 12 11 12 13 15 13 14
12 9 7 4 6 6 7 5 1 4 5 8 8 8 7 10 8 8 13 6 5 8 13 10 2 7 14 9 9 6 13 10 11 8 6 7 1 5 8 11 12 15 15 15 14
13 10 9 7 4 4 6 11 9 6 5 7 6 6 6 9 7 11 13 7 5 14 11 8 4 8 10 7 9 8 12 11 8 7 6 6 8 10 3 9 12 10 11 11 11
16 13 10 9 5 6 2 8 8 2 7 4 6 9 9 7 3 2 6 4 11 9 7 5 5 7 10 11 10 5 7 5 2 4 6 5 8 5 2 1 4 3 5 7 6
16 15 11 5 1 3 2 10 5 2 12 4 5 8 8 4 0 5 4 3 5 6 1 3 1 5 5 3 10 8 4 4 4 0 10 8 12 6 7 5 5 5 4 4 3
18 16 11 9 5 10 5 6 5 10 2 5 5 8 7 7 4 5 14 14 11 10 12 4 10 5 5 5 2 9 6 4 3 4 8 3 7 15 12 8 7 8 6 2 1
23 20 7 6 3 6 4 5 10 4 7 1 5 8 7 8 5 5 12 12 7 3 5 12 6 15 12 21 9 12 14 8 7 5 2 1 8 4 8 9 8 8 7 4 4
22 9 6 9 8 4 7 12 12 7 3 5 6 4 5 5 4 6 12 9 13 16 11 9 5 3 5 5 17 6 10 11 8 3 6 8 6 5 12 11 11 11 10 6 2
13 10 8 12 15 7 11 16 12 5 2 1 9 5 8 6 9 12 12 7 8 21 8 5 3 7 6 7 3 6 13 4 5 6 8 8 10 14 19 20 17 17 13 8 5
10 6 5 19 16 11 20 17 12 4 5 1 2 2 3 4 7 7 5 3 8 9 19 7 6 3 10 12 17 8 8 4 4 3 7 10 10 7 26 26 26 20 13 11 7
12 8 8 21 17 15 27 18 6 1 19 5 2 2 4 3 2 4 5 4 4 5 9 10 4 15 21 1 11 10 13 16 9 7 6 3 20 2 15 22 21 18 16 12 7
13 6 1 9 19 22 18 27 20 6 9 4 8 7 2 3 5 7 5 1 3 5 6 9 5 10 8 2 1 9 11 13 10 5 20 11 15 5 9 16 18 19 17 13 9
6 10 4 5 5 16 22 23 21 12 22 15 6 5 4 10 7 5 5 1 2 2 2 5 9 14 18 4 5 7 14 18 20 12 15 26 30 11 14 15 17 19 17 14 10
7 6 6 16 19 17 16 7 23 15 15 14 15 18 14 13 15 18 14 14 8 5 5 8 19 12 18 13 10 12 16 17 21 23 18 32 22 18 25 25 23 18 17 15 11
11 6 3 7 20 29 21 22 28 16 14 10 15 14 20 19 17 9 8 8 12 3 7 5 17 11 20 11 16 18 20 19 20 24 23 25 31 11 19 16 21 23 21 18 13
4 2 8 8 17 23 21 28 25 18 11 17 15 11 13 17 10 9 7 7 7 7 8 6 9 10 20 9 9 13 25 23 19 22 21 24 28 12 15 26 28 25 21 18 16
Wind_Direction
218 261 269 290 325 322 334 339 329 330 331 329 325 327 332 321 324 325 278 218 252 319 313 327 40 28 55 71 52 126 138 230 238 175 110 53 26 355 310 261 320 271 359 314 327
225 237 251 297 338 337 333 337 332 326 327 330 326 330 329 327 325 298 270 269 315 327 82 86 40 43 67 43 33 108 179 216 285 112 75 18 25 320 323 306 313 282 314 327 333
206 216 233 279 332 340 334 337 330 324 325 329 326 327 326 332 325 283 1 121 21 18 77 68 90 65 80 29 37 155 229 240 164 116 14 340 349 332 289 297 305 319 328 335 350
213 227 230 241 283 323 322 331 334 328 324 328 325 323 325 336 301 117 18 337 348 359 95 84 57 63 142 192 84 257 254 261 325 2 336 312 295 288 268 275 327 323 328 340 339
213 223 237 249 243 287 301 316 333 326 319 328 328 340 42 358 257 139 36 11 30 54 80 110 97 126 205 159 233 230 244 299 304 306 286 271 268 263 271 294 317 339 336 335 331
215 226 240 233 254 266 280 277 326 314 310 323 315 349 82 276 115 105 22 26 57 68 84 81 120 131 124 165 211 75 303 302 294 290 289 271 267 198 151 338 332 336 329 334 328
217 219 232 222 245 258 272 272 305 292 297 304 161 79 223 254 111 314 320 148 111 72 127 89 97 129 126 184 355 324 310 313 306 76 65 264 12 125 195 342 331 329 330 337 0
219 218 227 246 250 258 268 276 263 267 271 165 113 100 255 234 298 285 217 270 219 200 175 155 74 100 133 100 17 343 100 306 32 351 18 357 280 306 341 332 329 326 327 337 46
216 209 225 231 248 254 264 297 251 242 145 134 15 94 265 312 276 290 161 197 135 138 179 97 114 115 128 130 319 17 259 248 317 59 26 22 299 318 320 321 314 317 329 356 45
227 188 223 214 217 248 270 118 98 85 99 23 46 290 259 260 132 122 159 157 125 136 104 114 86 164 135 176 247 228 234 186 246 302 335 311 291 293 296 328 346 348 354 56 44
199 183 211 221 220 163 124 102 105 249 230 207 207 250 295 306 272 182 172 143 119 126 163 172 187 211 212 200 165 164 256 275 277 276 301 279 303 297 339 45 24 20 63 55 55
173 173 196 203 189 163 146 187 206 310 292 236 239 254 268 7 311 187 164 163 162 182 133 139 234 225 154 181 209 237 270 271 290 273 295 302 306 54 62 68 55 55 55 51 45
165 171 178 186 171 159 196 208 91 144 266 279 203 226 214 192 235 215 181 152 169 178 184 190 204 178 180 177 200 223 244 259 269 312 279 326 106 175 82 79 65 60 59 55 50
167 172 174 166 171 176 205 230 229 11 294 244 207 253 158 152 231 207 195 150 186 209 176 228 215 137 173 198 185 244 227 243 264 311 295 4 296 211 166 61 65 66 71 58 49
169 175 182 171 137 176 188 177 153 120 280 119 147 155 154 201 131 95 198 185 185 165 175 213 183 180 216 235 180 240 171 223 245 249 305 242 261 171 149 131 101 56 83 88 82
177 170 159 150 226 209 286 165 123 116 241 175 139 149 154 237 114 108 149 127 144 141 58 212 176 168 192 106 188 140 113 60 57 279 271 236 222 197 193 201 197 179 162 132 67
175 171 169 165 194 192 171 169 137 199 331 187 182 172 182 172 159 135 166 170 163 179 224 235 226 207 168 164 97 172 153 279 264 194 254 105 218 265 184 207 213 183 158 148 70
170 168 195 207 155 156 163 156 213 230 206 110 140 139 181 156 186 142 152 188 219 142 133 197 245 190 208 215 193 190 210 209 242 213 236 195 243 264 173 172 156 157 173 146 77
159 150 164 224 195 202 182 203 218 192 198 177 139 152 205 203 161 159 178 199 206 189 195 182 239 188 184 165 184 180 207 229 259 205 256 237 255 235 171 180 175 193 192 165 122
146 162 192 200 150 179 194 215 223 200 158 112 190 195 192 193 177 187 185 198 209 201 198 203 208 215 150 114 108 186 151 150 182 239 241 238 251 245 195 193 195 203 192 174 163
134 173 209 155 151 189 202 220 221 232 52 305 170 153 159 169 191 195 209 225 215 207 202 185 227 192 148 203 179 171 204 183 190 211 252 270 259 206 206 195 199 201 186 178 177
147 183 166 157 173 190 210 212 229 227 236 277 41 183 172 130 94 196 217 233 126 144 174 210 221 237 225 75 205 205 203 196 219 229 223 289 269 230 207 194 194 188 175 176 163
165 145 190 183 186 190 218 229 234 228 227 204 230 211 173 197 239 228 229 53 161 179 186 174 216 246 236 251 275 208 202 199 210 232 244 253 269 124 160 176 189 181 172 164 149
140 162 147 171 213 193 206 228 217 227 249 256 291 225 225 235 229 242 211 342 95 156 90 215 226 246 246 239 166 202 218 217 213 238 260 251 272 214 200 197 197 182 167 154 150
153 189 172 179 200 204 199 205 218 229 215 210 232 235 221 235 245 250 253 262 258 228 193 211 259 244 253 241 227 244 246 229 221 230 241 268 258 241 202 195 194 169 157 150 153
147 151 117 172 188 196 206 225 232 217 209 216 220 211 218 232 225 243 222 224 240 181 199 183 255 253 261 244 232 241 243 242 240 246 250 254 263 224 210 191 166 171 166 164 162
112 60 151 174 185 193 199 212 225 213 223 229 212 219 229 236 233 250 255 255 242 236 210 222 230 214 256 251 225 245 241 234 237 237 235 239 246 179 176 181 182 176 169 164 157